Weather History for EIDW - November, 2012

Change the Weather History Date:

Tuesday, November 13, 2012

  Actual Average Record
Temperature  
Mean Temperature 54 °F -  
Max Temperature 56 °F 49 °F 59 °F (2011)
Min Temperature 53 °F 39 °F 32 °F (1996)
Degree Days  
Heating Degree Days 10    
Growing Degree Days 4 (Base 50)    
Moisture  
Dew Point 51 °F    
Average Humidity 85    
Maximum Humidity 94    
Minimum Humidity 72    
Precipitation  
Precipitation 0.00 in 0.09 in - ()
Sea Level Pressure  
Sea Level Pressure 30.01 in    
Wind  
Wind Speed 15 mph ()    
Max Wind Speed 26 mph    
Max Gust Speed 39 mph    
Visibility 6.4 miles    
Events Rain    
Averages and records for this station are not official NWS values.
T = Trace of Precipitation, MM = Missing Value Source: Averaged Metar Reports

Daily Weather History Graph

Daily Weather History Graph

Search for Another Location

Airport or City:

Trip Planner

Search our weather history database for the weather conditions in past years. The results will help you decide how hot, cold, wet, or windy it might be!

Date:

Astronomy

Nov. 13, 2012 Rise Set
Actual Time 7:47 AM GMT 4:30 PM GMT
Civil Twilight 7:08 AM GMT 5:09 PM GMT
Nautical Twilight 6:26 AM GMT 5:52 PM GMT
Astronomical Twilight 5:45 AM GMT 6:33 PM GMT
Moon 7:08 AM GMT (11/13) 4:09 PM GMT (11/13)
Length of Visible Light 10h 00m
Length of Day
8h 43m
Waning Crescent, 0% of the Moon is Illuminated
Nov 13
Waning Crescent
Nov 13
New
Nov 20
First Quarter
Nov 28
Full
Dec 6
Last Quarter

Hourly Weather History & Observations

Time (GMT) Temp. Dew Point Humidity Pressure Visibility Wind Dir Wind Speed Gust Speed Precip Events Conditions
12:00 AM 55 °F 52 °F 84% 30.00 in 11 mi South 8.9 mph - - Rain Light Drizzle
12:00 AM 55.4 °F 51.8 °F 88% 29.98 in 6.2 mi South 8.1 mph - N/A   Mostly Cloudy
12:30 AM 53.6 °F 51.8 °F 94% 29.98 in 6.2 mi South 8.1 mph - N/A   Light Drizzle
1:00 AM 53.6 °F 51.8 °F 94% 29.98 in 6.2 mi South 6.9 mph - N/A   Light Drizzle
1:30 AM 55.4 °F 51.8 °F 88% 29.98 in 6.2 mi South 6.9 mph - N/A   Mostly Cloudy
2:00 AM 55.4 °F 51.8 °F 88% 29.98 in 6.2 mi South 8.1 mph - N/A   Mostly Cloudy
2:30 AM 55.4 °F 51.8 °F 88% 29.98 in 6.2 mi SSE 5.8 mph - N/A   Mostly Cloudy
3:00 AM 55.4 °F 51.8 °F 88% 29.98 in 6.2 mi SSW 10.4 mph - N/A   Mostly Cloudy
3:30 AM 55.4 °F 51.8 °F 88% 29.95 in 6.2 mi SSW 19.6 mph - N/A   Mostly Cloudy
4:00 AM 55.4 °F 51.8 °F 88% 29.95 in 6.2 mi SW 17.3 mph - N/A   Mostly Cloudy
4:30 AM 55.4 °F 50.0 °F 82% 29.95 in 6.2 mi SSW 21.9 mph - N/A   Mostly Cloudy
5:00 AM 55.4 °F 50.0 °F 82% 29.95 in 6.2 mi SW 21.9 mph 35.7 mph N/A   Mostly Cloudy
5:30 AM 55.4 °F 50.0 °F 82% 29.98 in 6.2 mi SW 25.3 mph 39.1 mph N/A   Mostly Cloudy
6:00 AM 55 °F 49 °F 72% 29.99 in 16 mi SSW 24.6 mph - -   Partly Cloudy
6:00 AM 55.4 °F 48.2 °F 77% 29.98 in 6.2 mi SSW 25.3 mph 36.8 mph N/A   Mostly Cloudy
6:30 AM 55.4 °F 48.2 °F 77% 29.98 in 6.2 mi SSW 19.6 mph - N/A   Mostly Cloudy
7:00 AM 55.4 °F 48.2 °F 77% 29.98 in 6.2 mi SSW 20.7 mph - N/A   Mostly Cloudy
7:30 AM 53.6 °F 48.2 °F 82% 29.98 in 6.2 mi SSW 17.3 mph 28.8 mph N/A   Mostly Cloudy
8:00 AM 55.4 °F 48.2 °F 77% 29.98 in 6.2 mi SSW 18.4 mph - N/A   Mostly Cloudy
8:30 AM 53.6 °F 48.2 °F 82% 29.98 in 6.2 mi SSW 20.7 mph - N/A   Mostly Cloudy
9:00 AM 53.6 °F 50.0 °F 88% 29.98 in 6.2 mi SSW 24.2 mph - N/A   Mostly Cloudy
9:30 AM 55.4 °F 50.0 °F 82% 29.98 in 6.2 mi SSW 21.9 mph - N/A   Mostly Cloudy
10:00 AM 55.4 °F 50.0 °F 82% 29.98 in 6.2 mi SW 20.7 mph - N/A   Mostly Cloudy
10:30 AM 55.4 °F 50.0 °F 82% 29.98 in 6.2 mi SSW 21.9 mph - N/A   Mostly Cloudy
11:00 AM 55.4 °F 50.0 °F 82% 30.01 in 6.2 mi SSW 24.2 mph 35.7 mph N/A   Mostly Cloudy
11:30 AM 55.4 °F 50.0 °F 82% 30.01 in 6.2 mi SSW 20.7 mph 33.4 mph N/A   Mostly Cloudy
12:00 PM 56 °F 51 °F 76% 30.01 in 22 mi SW 24.6 mph - -   Mostly Cloudy
12:00 PM 55.4 °F 50.0 °F 82% 30.01 in 6.2 mi SW 25.3 mph 39.1 mph N/A   Mostly Cloudy
12:30 PM 55.4 °F 50.0 °F 82% 29.98 in 6.2 mi SSW 25.3 mph 36.8 mph N/A   Mostly Cloudy
1:00 PM 55.4 °F 50.0 °F 82% 29.98 in 6.2 mi SSW 26.5 mph 38.0 mph N/A   Mostly Cloudy
1:30 PM 55.4 °F 50.0 °F 82% 30.01 in 6.2 mi SSW 21.9 mph - N/A   Mostly Cloudy
2:00 PM 55.4 °F 50.0 °F 82% 30.01 in 6.2 mi SW 25.3 mph - N/A   Mostly Cloudy
2:30 PM 55.4 °F 50.0 °F 82% 30.01 in 6.2 mi SSW 24.2 mph - N/A   Mostly Cloudy
3:00 PM 55.4 °F 50.0 °F 82% 30.01 in 6.2 mi SSW 21.9 mph - N/A   Mostly Cloudy
3:30 PM 55.4 °F 50.0 °F 82% 30.01 in 6.2 mi SSW 23.0 mph - N/A   Mostly Cloudy
4:00 PM 55.4 °F 50.0 °F 82% 30.01 in 6.2 mi SSW 21.9 mph - N/A   Mostly Cloudy
4:30 PM 55.4 °F 50.0 °F 82% 30.01 in 6.2 mi SSW 21.9 mph 33.4 mph N/A   Mostly Cloudy
5:00 PM 55.4 °F 50.0 °F 82% 30.01 in 6.2 mi SSW 17.3 mph - N/A   Mostly Cloudy
5:30 PM 53.6 °F 51.8 °F 94% 30.04 in 6.2 mi SSW 17.3 mph - N/A   Mostly Cloudy
6:00 PM 54 °F 51 °F 87% 30.05 in 4 mi SSW 15.7 mph - - Rain Light Drizzle
6:00 PM 53.6 °F 51.8 °F 94% 30.04 in 4.3 mi SSW 16.1 mph - N/A   Light Drizzle
6:30 PM 55.4 °F 50.0 °F 82% 30.04 in 6.2 mi SSW 17.3 mph 28.8 mph N/A   Mostly Cloudy
7:00 PM 55.4 °F 50.0 °F 82% 30.04 in 6.2 mi SSW 20.7 mph - N/A   Mostly Cloudy
7:30 PM 55.4 °F 50.0 °F 82% 30.06 in 6.2 mi SSW 18.4 mph - N/A   Mostly Cloudy
8:00 PM 55.4 °F 51.8 °F 88% 30.06 in 6.2 mi SSW 16.1 mph - N/A   Mostly Cloudy
8:30 PM 53.6 °F 51.8 °F 94% 30.06 in 6.2 mi SSW 15.0 mph - N/A   Mostly Cloudy
9:00 PM 53.6 °F 51.8 °F 94% 30.06 in 6.2 mi SSW 13.8 mph - N/A   Light Drizzle
9:30 PM 53.6 °F 51.8 °F 94% 30.09 in 6.2 mi SSW 11.5 mph - N/A   Light Drizzle
10:00 PM 53.6 °F 51.8 °F 94% 30.09 in 3.7 mi SSW 12.7 mph - N/A   Light Drizzle
10:30 PM 53.6 °F 51.8 °F 94% 30.09 in 6.2 mi SSW 11.5 mph - N/A   Light Drizzle
11:00 PM 53.6 °F 51.8 °F 94% 30.09 in 6.2 mi SSW 9.2 mph - N/A   Light Drizzle
11:30 PM 53.6 °F 51.8 °F 94% 30.09 in 6.2 mi SSW 10.4 mph - N/A Rain Light Rain